GW6161 Weather Reports


time (UTC)temp
F
wind
direction
speed
knots
gust
knots
rain 1hr
in
rain 24hr
in
rain mn
in
humidity
%
barometer
mb
20260906082129 73 325 0.0 1.7 0.00 0.41 0.41 99 997.1
20260906081126 73 278 0.9 1.7 0.00 0.41 0.41 99 997.3
20260906080124 73 273 1.7 1.7 0.00 0.41 0.41 99 997.5
20260906075124 73 322 0.9 1.7 0.00 0.41 0.41 99 997.5
20260906074124 73 286 1.7 1.7 0.00 0.41 0.41 99 997.5
20260906073121 73 295 1.7 2.6 0.00 0.41 0.41 99 997.2
20260906072118 73 308 1.7 1.7 0.54 0.41 0.41 98 996.7
20260906071114 73 285 0.0 1.7 0.00 0.32 0.32 98 997.3
20260906070112 73 324 0.9 1.7 0.00 0.32 0.32 98 997.0
20260906065107 73 305 0.0 1.7 0.00 0.32 0.32 98 997.1
20260906064104 73 24 0.0 1.7 0.00 0.32 0.32 98 997.0
20260906063100 73 326 1.7 1.7 0.02 0.32 0.32 98 996.5
20260906062101 74 65 0.0 1.7 0.07 0.32 0.32 97 996.2
20260906061056 74 89 0.0 0.9 0.07 0.31 0.31 97 996.5
20260906060055 74 332 0.0 1.7 0.31 0.29 0.29 97 996.7
20260906055052 74 55 1.7 1.7 0.00 0.24 0.24 96 996.8
20260906054047 75 67 1.7 1.7 0.19 0.24 0.24 96 996.4
20260906053045 75 354 0.0 2.6 0.80 0.20 0.20 93 996.7
20260906052043 78 215 1.7 2.6 0.45 0.08 0.08 93 997.2
20260906051039 79 298 0.0 2.6 0.02 0.00 0.00 85 996.8
20260906050036 81 254 0.0 2.6 0.00 0.00 0.00 80 996.7
20260906045035 81 314 0.9 1.7 0.00 0.00 0.00 79 996.8
20260906044032 80 296 0.0 1.7 0.00 0.00 0.00 81 996.9
20260906043030 80 0 0.9 1.7 0.00 0.00 0.00 81 996.8
20260906042028 80 313 0.0 1.7 0.00 0.00 0.00 82 997.0
20260906041025 80 13 0.9 1.7 0.00 0.00 0.00 83 996.8
20260906040021 80 252 0.0 0.9 0.00 0.00 0.00 82 996.9
20260906035018 80 258 0.0 0.9 0.00 0.00 0.00 81 996.8
20260906034013 81 278 0.9 1.7 0.00 0.00 0.00 80 996.7
20260906033010 81 305 0.0 1.7 0.00 0.00 0.00 80 996.5
20260906032006 81 334 0.0 1.7 0.00 0.00 0.00 78 996.7
20260906031003 82 306 0.9 1.7 0.00 0.00 0.00 76 996.8
20260906025957 82 333 0.9 1.7 0.00 0.00 0.00 76 996.6
20260906024955 82 302 0.9 1.7 0.00 0.00 0.00 77 996.4
20260906023950 83 313 0.9 1.7 0.00 0.00 0.00 75 996.2
20260906022946 83 313 1.7 1.7 0.00 0.00 0.00 73 996.1
20260906021943 83 286 1.7 1.7 0.00 0.00 0.00 73 996.0
20260906020944 83 305 1.7 1.7 0.00 0.00 0.00 73 996.0
20260906015938 83 277 0.0 1.7 0.00 0.00 0.00 73 995.9
20260906014938 84 317 1.7 1.7 0.00 0.00 0.00 72 995.7
20260906013934 84 308 0.9 1.7 0.00 0.00 0.00 72 995.5
20260906012931 84 315 0.0 1.7 0.00 0.00 0.00 72 995.3
20260906011930 85 301 0.9 2.6 0.00 0.00 0.00 73 995.3
20260906010926 85 296 0.9 1.7 0.00 0.00 0.00 71 995.1
20260906005924 86 290 0.9 1.7 0.00 0.00 0.00 69 995.3
20260906004921 87 285 0.9 0.9 0.00 0.00 0.00 65 995.3
20260906003918 88 313 0.0 1.7 0.00 0.00 0.00 65 995.1
20260906002914 87 15 0.0 0.9 0.00 0.00 0.00 68 995.0
20260906001914 87 322 0.0 0.9 0.00 0.00 0.00 69 995.2
20260906000910 88 302 0.0 0.9 0.00 0.00 0.00 67 995.3
20260905235906 88 322 0.0 0.0 0.00 0.00 0.00 67 995.3
20260905234902 88 333 0.0 0.9 0.00 0.00 0.00 66 995.0
20260905233858 89 322 0.0 0.0 0.00 0.00 0.00 66 995.1
20260905232857 89 306 0.0 0.9 0.00 0.00 0.00 65 995.1
20260905231854 89 328 0.0 0.9 0.00 0.00 0.00 64 995.1
20260905230852 90 297 0.0 0.9 0.00 0.00 0.00 64 994.9
20260905225849 91 341 0.0 0.9 0.00 0.00 0.00 64 994.8
20260905224845 91 50 0.0 0.9 0.00 0.00 0.00 63 995.1
20260905223841 92 308 0.0 1.7 0.00 0.00 0.00 62 995.0
20260905222839 93 297 0.0 0.9 0.00 0.00 0.00 62 995.0
20260905221834 94 324 0.9 1.7 0.00 0.00 0.00 59 994.8
20260905220832 97 286 2.6 2.6 0.00 0.00 0.00 53 995.0
20260905215827 98 295 1.7 1.7 0.00 0.00 0.00 51 995.1
20260905214826 96 301 1.7 1.7 0.00 0.00 0.00 54 995.4
20260905213827 96 294 0.9 2.6 0.00 0.00 0.00 50 995.1
20260905212824 97 287 1.7 1.7 0.00 0.00 0.00 54 995.3
20260905211824 96 277 1.7 1.7 0.00 0.00 0.00 54 995.3
20260905210822 96 265 1.7 4.3 0.00 0.00 0.00 48 995.3
20260905205820 96 297 1.7 1.7 0.00 0.00 0.00 51 995.4
20260905204820 96 302 1.7 1.7 0.00 0.00 0.00 55 995.3
20260905203821 96 276 1.7 3.5 0.00 0.00 0.00 48 995.6
20260905202818 97 311 1.7 4.3 0.00 0.00 0.00 50 995.8
20260905201814 97 271 1.7 1.7 0.00 0.00 0.00 47 995.9
20260905200810 98 267 1.7 4.3 0.00 0.00 0.00 47 996.1
20260905195810 98 269 2.6 2.6 0.00 0.00 0.00 47 996.3
20260905194807 97 276 1.7 2.6 0.00 0.00 0.00 47 996.5
20260905193806 98 279 2.6 3.5 0.00 0.00 0.00 47 996.6
20260905192802 98 29 0.0 2.6 0.00 0.00 0.00 50 996.9
20260905191757 97 273 4.3 5.2 0.00 0.00 0.00 52 996.9
20260905190754 98 274 1.7 3.5 0.00 0.00 0.00 48 997.0
20260905185753 98 264 1.7 1.7 0.00 0.00 0.00 49 997.0
20260905184753 97 267 2.6 3.5 0.00 0.00 0.00 50 997.3
20260905183752 97 267 3.5 5.2 0.00 0.00 0.00 50 997.4
20260905182747 97 269 0.9 1.7 0.00 0.00 0.00 52 997.3
20260905181743 97 272 1.7 2.6 0.00 0.00 0.00 49 997.6
20260905180743 97 291 1.7 2.6 0.00 0.00 0.00 49 997.6
20260905175738 97 261 1.7 3.5 0.00 0.00 0.00 49 997.7
20260905174733 96 268 1.7 2.6 0.00 0.00 0.00 52 997.9
20260905173731 96 268 1.7 2.6 0.00 0.00 0.00 51 997.9
20260905172726 96 266 1.7 2.6 0.00 0.00 0.00 52 998.0
20260905171722 96 275 1.7 2.6 0.00 0.00 0.00 56 998.1
20260905170721 95 268 1.7 1.7 0.00 0.00 0.00 58 998.2
20260905165721 95 267 2.6 2.6 0.00 0.00 0.00 53 998.2
20260905164716 94 306 1.7 2.6 0.00 0.00 0.00 61 998.7
20260905163712 93 271 1.7 2.6 0.00 0.00 0.00 58 998.7
20260905162710 92 270 0.9 2.6 0.00 0.00 0.00 61 998.8
20260905161710 90 259 0.9 1.7 0.00 0.00 0.00 68 998.8
20260905160707 90 322 0.0 0.9 0.00 0.00 0.00 67 999.0
20260905155708 89 309 0.9 1.7 0.00 0.00 0.00 72 999.2
20260905154707 89 299 0.0 1.7 0.00 0.00 0.00 72 999.1
20260905153704 88 313 0.0 1.7 0.00 0.00 0.00 75 999.4
20260905152700 86 265 2.6 2.6 0.00 0.00 0.00 75 999.3
20260905151701 85 300 0.9 1.7 0.00 0.00 0.00 80 999.4
20260905150657 85 327 0.0 1.7 0.00 0.00 0.00 79 999.0
20260905145654 84 310 0.9 1.7 0.00 0.00 0.00 81 998.9
20260905144654 83 312 0.9 1.7 0.00 0.00 0.00 83 999.0
20260905143654 82 297 0.0 1.7 0.00 0.00 0.00 85 999.1
20260905142653 81 7 0.9 1.7 0.00 0.00 0.00 85 999.3
20260905141648 80 319 0.9 1.7 0.00 0.00 0.00 89 999.4
20260905140645 79 317 0.9 1.7 0.00 0.00 0.00 90 999.6
20260905135640 78 38 0.0 1.7 0.00 0.00 0.00 91 999.4
20260905134635 78 339 0.9 1.7 0.00 0.00 0.00 93 999.3
20260905133630 77 356 0.9 1.7 0.00 0.00 0.00 93 999.6
20260905132630 76 288 0.9 1.7 0.00 0.00 0.00 93 999.6
20260905131625 75 19 1.7 1.7 0.00 0.00 0.00 94 999.7
20260905130620 75 24 0.0 1.7 0.00 0.00 0.00 94 999.7
20260905125620 75 286 0.0 1.7 0.00 0.00 0.00 95 999.4
20260905124618 74 25 0.0 1.7 0.00 0.00 0.00 96 999.6
20260905123615 74 56 0.0 1.7 0.00 0.00 0.00 96 999.6
20260905122612 74 300 0.9 1.7 0.00 0.00 0.00 96 999.4
20260905121607 73 334 0.0 1.7 0.00 0.00 0.00 96 999.3
20260905120601 73 357 0.0 0.9 0.00 0.00 0.00 96 999.2
20260905115601 73 35 0.0 1.7 0.00 0.00 0.00 96 999.1
20260905114602 73 318 0.9 0.9 0.00 0.00 0.00 96 999.0
20260905113601 73 354 0.0 1.7 0.00 0.00 0.00 97 998.9
20260905112558 73 56 0.9 1.7 0.00 0.00 0.00 97 998.8
20260905111554 73 24 0.0 1.7 0.00 0.00 0.00 98 998.8
20260905110552 73 326 0.0 1.7 0.00 0.00 0.00 98 998.5
20260905105548 73 339 0.9 1.7 0.00 0.00 0.00 98 998.5
20260905104543 73 311 0.9 1.7 0.00 0.00 0.00 98 998.6
20260905103538 73 7 0.0 1.7 0.00 0.00 0.00 98 998.1
20260905102535 73 331 0.0 0.9 0.00 0.00 0.00 97 998.2
20260905101530 73 269 0.0 0.9 0.00 0.00 0.00 97 998.0
20260905100525 73 324 0.9 1.7 0.00 0.00 0.00 97 998.1
20260905095525 73 301 0.0 1.7 0.00 0.00 0.00 97 998.0
20260905094521 73 44 0.0 0.9 0.00 0.00 0.00 97 998.0
20260905093521 73 269 0.0 0.9 0.00 0.00 0.00 97 998.1
20260905092518 73 264 0.0 1.7 0.00 0.00 0.00 96 998.1
20260905091513 73 326 0.0 1.7 0.00 0.00 0.00 96 998.1
20260905090508 73 76 0.0 1.7 0.00 0.00 0.00 96 998.0
20260905085506 74 306 0.0 1.7 0.00 0.00 0.00 96 997.8
20260905084502 74 4 0.9 1.7 0.00 0.00 0.00 97 997.8
20260905083458 74 336 0.0 1.7 0.00 0.00 0.00 97 997.8
20260905082455 74 5 0.9 1.7 0.00 0.00 0.00 96 997.8